OpenBCM V1.13 (Linux)

Packet Radio Mailbox

DB0FHN

[JN59NK Nuernberg]

 Login: GUEST





  
I0OJJ  > KEPS     17.01.26 02:33l 326 Lines 15470 Bytes #999 (0) @ AMSAT
BID : ORB26017.1
Read: OE5RCO DH1ME DJ6UX GUEST
Subj: 2Line Orbital Elements 26017.AMSAT
Path: DB0FHN<DB0RKB<DK0WUE<K7EK<VE3CGR<CX2SA<EA2RCF<I0OJJ
Sent: 260117/0021z @:I0OJJ.ITA.EU [Rome] obcm1.13-5-g8ab8
From: I0OJJ @ I0OJJ.ITA.EU (Gustavo)
To:   KEPS @ AMSAT
X-Info: This message was generated automatically


QST de W1STR

AMSAT Orbital Elements for Amateur Satellites in TLE Format
>From Orbital Analysis Office
New England Sci-Tech STEM Education Center
Natick MA January 17, 2026
To all radio amateurs


These element sets describe the orbits of various satellites 
in use by the amateur radio community. For details see:
www.amsat.org/keplerian-elements-formats/

A daily update of element sets is available at:
www.amsat.org/tle/daily-bulletin.txt
or without bulletin text:
www.amsat.org/tle/dailytle.txt


AO-07
1 07530U 74089B   26016.54712052 -.00000027  00000-0  12044-3 0  9998
2 07530 101.9966  28.1804 0012375  61.3263  90.5306 12.53695112341513
UO-11
1 14781U 84021B   26016.44068182  .00001187  00000-0  12794-3 0  9997
2 14781  97.7857 343.9423 0007026 337.9094  22.1821 14.90279164234529
AO-27
1 22825U 93061C   26016.47249316  .00000086  00000-0  49751-4 0  9993
2 22825  98.7093  83.8137 0008424 178.4097 181.7114 14.30891070685309
FO-29
1 24278U 96046B   26016.59745766  .00000005  00000-0  37793-4 0  9990
2 24278  98.5441 246.0473 0350705 129.6066 233.6596 13.53264490452666
GO-32
1 25397U 98043D   26016.54841323  .00000048  00000-0  41040-4 0  9990
2 25397  98.9955   5.5705 0000566 345.2824  14.8338 14.24388271429743
ISS
1 25544U 98067A   26016.36962088  .00009695  00000-0  18173-3 0  9999
2 25544  51.6334 331.0355 0007784  24.7534 335.3826 15.49326051548222
NO-44
1 26931U 01043C   26016.45152634  .00000099  00000-0  67855-4 0  9997
2 26931  67.0509 276.7112 0007223 267.8387  92.1888 14.31878073268724
SO-50
1 27607U 02058C   26016.07430981  .00000803  00000-0  11369-3 0  9998
2 27607  64.5509 239.4665 0073568 290.1930  69.1274 14.82548864241906
CO-55
1 27844U 03031E   26016.50662204  .00000260  00000-0  13182-3 0  9998
2 27844  98.6765  26.9621 0008536 265.8922  94.1281 14.24213256170081
CO-57
1 27848U 03031J   26016.49008064  .00000214  00000-0  11316-3 0  9994
2 27848  98.6794  26.7800 0008460 286.1764  73.8484 14.23516232169794
RS-22
1 27939U 03042A   26016.63041331  .00000874  00000-0  14402-3 0  9998
2 27939  98.3378 196.7639 0012026  34.0071  55.1524 14.73078260193235
CO-58
1 28895U 05043F   26016.38156875  .00001214  00000-0  20140-3 0  9990
2 28895  98.2752 169.0553 0013711 330.8728  29.1713 14.72050562 79416
CO-65
1 32785U 08021C   26016.55766836  .00004738  00000-0  31597-3 0  9997
2 32785  97.8115 355.1606 0009180 173.6072 186.5274 15.07527151962338
CO-66
1 32791U 08021J   26016.52739240  .00013646  00000-0  52344-3 0  9991
2 32791  97.7455   7.9106 0005363 107.3246 252.8579 15.26604623964107
RS-30
1 32953U 08025A   26016.55776663  .00000065  00000-0  39806-3 0  9997
2 32953  82.5028  89.7686 0018237 282.1720  77.7317 12.43173468800858
SRMSAT
1 37841U 11058D   26016.03818802  .00000389  00000-0  67301-4 0  9994
2 37841  19.9712 260.3789 0011662 330.2388 167.7972 14.11524973736295
ZACUBE-1
1 39417U 13066B   26016.42995506  .00004625  00000-0  37457-3 0  9991
2 39417  97.8083 338.0371 0042856  37.2560 323.1622 14.99503378657976
Delfi-N3xt
1 39428U 13066N   26016.34335268  .00006205  00000-0  57478-3 0  9998
2 39428  97.8358 297.0557 0078501 352.7768   7.2313 14.92514313651957
GOMX-1
1 39430U 13066Q   26016.57947473  .00001530  00000-0  23879-3 0  9997
2 39430  97.6585 226.5302 0129241 203.8540 155.6645 14.68799790647652
LO-74
1 39440U 13066AA  26016.60978889  .00002935  00000-0  28345-3 0  9990
2 39440  97.8748 325.2540 0059399 168.0215 192.2432 14.92319044654379
AO-73
1 39444U 13066AE  26016.33097716  .00007365  00000-0  49228-3 0  9990
2 39444  97.8096 345.0587 0038703   2.8108 357.3329 15.06667775656770
DTUSAT-2
1 40030U 14033W   26016.41222379  .00005550  00000-0  32365-3 0  9990
2 40030  98.0781   4.8540 0009657  42.3446 317.8527 15.12385742629720
EO-80
1 40032U 14033Y   26016.48673860  .00006128  00000-0  35589-3 0  9997
2 40032  98.0667   4.2787 0007251 347.9277  12.1777 15.12503596629716
LILACSAT-2
1 40908U 15049K   26016.57380279  .00012098  00000-0  25018-3 0  9995
2 40908  97.4878  48.0514 0009685  84.8442 275.3912 15.45912497572286
Horyu-4
1 41340U 16012D   26016.52883111  .00045212  00000-0  65882-3 0  9992
2 41340  30.9939  70.4416 0005221 214.9642 145.0666 15.54411727546962
Lapan A3
1 41603U 16040E   26016.58038422  .00003236  00000-0  10742-3 0  9993
2 41603  97.1437  17.8792 0010042 188.5168 171.5905 15.31872239531597
CAS-2T
1 41847U 16066G   26016.19535779  .00001160  00000-0  17336-3 0  9995
2 41847  98.3989  93.5979 0342595 230.4305 126.6163 14.44239106482855
TechnoSat
1 42829U 17042E   26016.40124924  .00003634  00000-0  26843-3 0  9992
2 42829  97.4053 180.1251 0017428 251.8125 108.1204 15.03715295463882
AO-91
1 43017U 17073E   26016.58510877  .00007641  00000-0  35372-3 0  9990
2 43017  97.4927 247.0028 0159938 130.5148 231.0142 15.09639605442495
S-Net D
1 43186U 18014G   26016.24057129  .00003486  00000-0  19111-3 0  9998
2 43186  97.5487 282.0620 0008375 172.3874 187.7487 15.14827476435749
S-Net B
1 43187U 18014H   26016.24919391  .00003503  00000-0  19210-3 0  9997
2 43187  97.5494 282.0520 0009209 168.7529 191.3910 15.14802635435742
S-Net A
1 43188U 18014J   26016.24013535  .00003494  00000-0  19145-3 0  9999
2 43188  97.5502 282.2251 0009022 169.2666 190.8760 15.14833827435741
S-Net C
1 43189U 18014K   26016.58257362  .00003726  00000-0  20408-3 0  9997
2 43189  97.5518 282.6162 0010703 162.4856 197.6747 15.14799173434348
Ten-Koh
1 43677U 18084G   26016.55480331  .00001358  00000-0  10853-3 0  9999
2 43677  98.0736 202.5931 0007448 267.4202  92.6169 15.02048283393393
PO-101
1 43678U 18084H   26016.55060439  .00001448  00000-0  12266-3 0  9993
2 43678  98.1099 206.4357 0006685 300.8513  59.2051 14.99670391393486
QO-100
1 43700U 18090A   26016.59052735  .00000162  00000-0  00000-0 0  9992
2 43700   0.0140  73.6732 0001847 281.0103 359.7249  1.00274248 26155
MinXSS-2
1 43758U 18099A   26016.61892736  .00020785  00000-0  58281-3 0  9990
2 43758  97.4749  89.4987 0010017  92.8160 267.4231 15.36566803390773
AO-95
1 43770U 18099N   26016.43262359  .00008364  00000-0  36010-3 0  9991
2 43770  97.4626  77.4707 0009928 155.0344 205.1374 15.22813816390099
SNUSat 2
1 43782U 18099AA  26016.38329906  .00005928  00000-0  28613-3 0  9993
2 43782  97.4308  72.2043 0012305 105.4349 254.8246 15.18981944389968
SnugLite
1 43784U 18099AC  26016.41073682  .00008181  00000-0  34850-3 0  9990
2 43784  97.4121  72.4069 0004477 100.9967 259.1774 15.23213894390188
ITASat 1
1 43786U 18099AE  26016.60606789  .00005213  00000-0  26905-3 0  9998
2 43786  97.4278  71.1955 0013827 155.2103 204.9797 15.16672976389911
EAGLET 1
1 43790U 18099AJ  26016.39883226  .00002939  00000-0  17703-3 0  9990
2 43790  97.4479  70.0448 0012342 143.9338 216.2727 15.11496746389394
ESEO
1 43792U 18099AL  26016.55409934  .00000636  00000-0  50632-4 0  9991
2 43792  97.4186  60.3136 0013403 125.6912 234.5564 15.03645162389011
JO-97
1 43803U 18099AX  26016.60116220  .00011855  00000-0  43476-3 0  9995
2 43803  97.4375  79.3263 0007595  89.7948 270.4162 15.28103930390439
Suomi 100
1 43804U 18099AY  26016.13099928  .00008240  00000-0  33945-3 0  9993
2 43804  97.4436  77.3376 0012164  96.5511 263.7111 15.24292604390220
ISAT
1 43879U 18111D   26015.77761592  .00027710  00000-0  59226-3 0  9995
2 43879  97.5915 301.9152 0008520 116.9516 243.2603 15.44769292387494
UWE-4
1 43880U 18111E   26016.50110111  .00018723  00000-0  52966-3 0  9992
2 43880  97.5869 299.0412 0010757 136.3654 223.8442 15.36306977387419
Sparrow
1 43881U 18111F   26016.54854565  .00038676  00000-0  75154-3 0  9998
2 43881  97.6106 306.6998 0006158 134.5490 225.6263 15.47506113387740
Prox-1
1 44339U 19036A   26016.36440781  .00009802  00000-0  10584-2 0  9999
2 44339  23.9971  45.2547 0007130  86.2505 273.8808 14.86218593350821
Taurus 1
1 44530U 19059C   26016.56621009  .00004143  00000-0  70292-3 0  9999
2 44530  98.6233 172.3601 0008668  68.8565 291.3565 14.69780189336359
TO-108
1 44881U 19093C   26016.57711213  .00001286  00000-0  15244-3 0  9995
2 44881  97.7720  92.4248 0012520 221.4106 138.6161 14.86196566328892
FloripaSat 1
1 44885U 19093G   26016.49669523  .00003996  00000-0  31107-3 0  9992
2 44885  97.7974 109.8578 0010738 210.3211 149.7393 15.01781463329861
RS-44
1 44909U 19096E   26016.57041886  .00000017  00000-0  18374-4 0  9990
2 44909  82.5196  80.4643 0218283 138.7009 223.0834 12.79746496282959
SALSAT
1 46495U 20068K   26016.53229152  .00006492  00000-0  24761-3 0  9992
2 46495  97.8803  10.7039 0012181 109.8671 250.3881 15.26992286292190
CSS (TIANHE-1)
1 48274U 21035A   26016.60726816  .00015077  00000-0  18058-3 0  9992
2 48274  41.4653 164.7931 0011266 297.5042  62.4652 15.60562549269472
CUTE
1 49263U 21088D   26016.48074490  .00026361  00000-0  31194-3 0  9993
2 49263  97.4289 105.9386 0007037 138.1690 222.0107 15.61225846238717
TeikyoSat 4
1 49396U 21102B   26016.55423334  .00001465  00000-0  96786-4 0  9997
2 49396  97.3862  51.8425 0013850  94.5395 265.7416 15.08822964229857
Z-Sat
1 49399U 21102E   26016.54762984  .00003506  00000-0  18100-3 0  9997
2 49399  97.3549  56.4448 0018732  59.3992 300.9086 15.16807371230440
KOSEN 1
1 49402U 21102H   26016.56960802  .00005603  00000-0  23181-3 0  9998
2 49402  97.3426  61.7407 0015207  29.1935 331.0149 15.24250482230909
HO-113
1 50466U 21131B   26016.57324983  .00000403  00000-0  13858-3 0  9990
2 50466  98.5025 109.8169 0004075 178.7817 181.3383 14.41165972213273
SNUGLITE 2
1 52899U 22065F   26016.38817328  .00000878  00000-0  17694-3 0  9996
2 52899  98.1951 161.7335 0008312 135.2333 224.9541 14.63949874188782
